Weather Service Report


989 
FPUS83 KFGF 242010
OPUFGF
PRAIRIE TO PINES WEATHER ROUNDUP
NATIONAL WEATHER SERVICE EASTERN NORTH DAKOTA/GRAND FORKS ND
200 PM CST MON NOV 24 2014

 **SATELLITE DATA USED TO AUGMENT SKY COVER AT AUTOMATED STATIONS**
 *****  WEATHER ACROSS EASTERN NORTH DAKOTA  *****
  
CITY           SKY/WX    TMP DP  RH WIND       PRES   REMARKS
GRAND FORKS    MOSUNNY   18  10  71 N21G29    29.83R WCI   1          
GRAND FORKS AF SUNNY     20  10  66 N23G31    29.83R WCI   3          
GRAND CITY NWS   N/A     16 N/A N/A N20         N/A  WCI  -1          
BUXTON         NOT AVBL                                               
DEVILS LAKE    SUNNY     16  -2  45 NW16      29.87R WCI   0          
FARGO          CLOUDY    18  10  71 N25G31    29.80R WCI   0          
WAHPETON ARPT  CLOUDY    14   7  73 N24       29.78R WCI  -5          
$$

 *****  WEATHER ACROSS CENTRAL AND WESTERN NORTH DAKOTA  *****
  
CITY           SKY/WX    TMP DP  RH WIND       PRES   REMARKS
JAMESTOWN      SUNNY     20   5  52 NW22G31   29.85R WCI   3          
BISMARCK       SUNNY     27  -1  30 N10G22    29.95R WCI  17          
MINOT          SUNNY     20   1  43 W9        29.94R WCI   9          
MINOT AFB      SUNNY     20   6  52 NW10      29.94R WCI   9          
GARRISON         N/A     24   1  36 NW16      29.94R WCI  11          
WILLISTON      MOSUNNY   25  17  72 W10       29.99R WCI  15          
DICKINSON      MOSUNNY   23  15  71 W17       29.93R WCI   9          
HETTINGER      SUNNY     25  17  72 NW16      29.94R WCI  12          
$$

 *****  OTHER OBSERVATIONS NORTHEAST NORTH DAKOTA  *****
  
CITY           SKY/WX    TMP DP  RH WIND       PRES   REMARKS
WALHALLA         N/A     16   5  62 N22       29.90R WCI  -2          
LANGDON        FAIR      14   1  57 MISG      29.85R                  
CAVALIER       FAIR      16   7  67 N20G26    29.88R WCI  -1          
GRAFTON        FAIR      16   9  73 N23G31    29.85R WCI  -2          
CANDO          FAIR      18   0  45 N13       29.90R WCI   4          
FORT TOTTEN      N/A     18  -1  43 NW8       29.95S WCI   8          
ROLLA          FAIR      14  -2  48 NW16      29.88R WCI  -2          
RUGBY          FAIR      16   1  53 NW17      29.92R WCI   0          
 ***** THE ABOVE OBSERVATIONS ARE NON NWS ARE NOT QUALITY
        CONTROLLED AND MAY MIS-REPORT RAIN FOR SNOW...
$$

 *****  OTHER OBSERVATIONS SOUTHEAST NORTH DAKOTA *****
  
CITY           SKY/WX    TMP DP  RH WIND       PRES   REMARKS
COOPERSTOWN    NOT AVBL                                               
VALLEY CITY    FLURRIES  18  10  73 NW24G36   29.82R WCI   0          
OAKES            N/A     21  12  68 NW30G38   29.81R WCI   3          
GWINNER        PTCLDY    25  14  63 NW25G32   29.81R WCI   9          
SHEYENNE NWR     N/A     21  11  66 N18       29.95S WCI   6          
BUFFALO        NOT AVBL                                               
WYNDMERE         N/A     19  12  73 NW20        N/A  WCI   4          
 ***** THE ABOVE OBSERVATIONS ARE NON NWS ARE NOT QUALITY
       CONTROLLED AND MAY MIS-REPORT RAIN FOR SNOW...
$$

  *****  WEATHER ACROSS NORTHERN MINNESOTA  *****     
  
CITY           SKY/WX    TMP DP  RH WIND       PRES   REMARKS
FLAG ISLAND    LGT SNOW  12   9  85 NW21G26   29.72R WCI  -6          
WARROAD        FLURRIES  14   9  79 NW10G20   29.74R WCI   1          
ROSEAU         SUNNY     18  10  73 N18       29.75R WCI   2          
HALLOCK        MOSUNNY   14   9  79 N24G30    29.83R WCI  -5          
THF RVR FALLS  MOSUNNY   12   9  85 NW21      29.75R WCI  -6          
HALSTAD          N/A     16  10  80 N22         N/A  WCI  -2          
FOSSTON        LGT SNOW  10   5  79 N17       29.73R WCI  -7          
BAUDETTE       LGT SNOW  13   8  81 NW24G30   29.67R WCI  -7          
WASKISH        LGT SNOW  16  10  79 NW10      29.66R WCI   3          
CROOKSTON      FLURRIES  14  10  85 N25       29.80R WCI  -5          
$$
  *****  WEATHER ACROSS CENTRAL AND WEST MINNESOTA  *****     
  
CITY           SKY/WX    TMP DP  RH WIND       PRES   REMARKS
BEMIDJI        FLURRIES  12   7  80 NW16G24   29.65R WCI  -5          
PARK RAPIDS    FLURRIES  12   5  73 NW20G28   29.62R WCI  -6          
WADENA         CLOUDY    10   5  79 NW22G28   29.64R WCI  -9          
DETROIT LAKES  LGT SNOW  12   9  85 NW20G28   29.71R WCI  -6          
MOORHEAD       FLURRIES  14  10  85 N20       29.79R WCI  -3          
FERGUS FALLS   CLOUDY    10   1  67 N23G31    29.76R WCI -10          
ELBOW LAKE       N/A      8   3  78 NW24G37   29.71R WCI -13          
MORRIS MN        N/A     10   7  85 NW26G38   29.70R HAZE    WCI -11  
STAPLES        CLOUDY    12   7  79 NW20G25   29.61R WCI  -6          
WHEATON        FLURRIES  12   7  79 NW21G31   29.78R WCI  -6          
$$
  *****  WEATHER ELSEWHERE ACROSS MINNESOTA  *****     
  
CITY           SKY/WX    TMP DP  RH WIND       PRES   REMARKS
DULUTH         LGT SNOW  21  16  81 NW24G36   29.39R BLWGSNOWWCI   4  
INTRNTL FALLS  FLURRIES  17  10  74 N15       29.60R WCI   2          
ELY            LGT SNOW  18  12  79 N12G20    29.45R WCI   5          
CLOQUET        CLOUDY    21  16  79 NW23G32   29.43R WCI   5          
BRAINERD       FLURRIES  16   9  74 NW26G33   29.57R WCI  -3          
HIBBING        FLURRIES  19  11  70 N22G32    29.49R WCI   2          
ALEXANDRIA     CLOUDY    11   4  73 NW25      29.63R WCI -10          
SAINT CLOUD    CLOUDY    18  10  71 NW18G30   29.56R WCI   2          
MINNEAPOLIS    CLOUDY    20  13  74 NW26      29.52R WCI   2          
$$

  *****  WEATHER ACROSS SOUTH DAKOTA  *****
  
CITY           SKY/WX    TMP DP  RH WIND       PRES   REMARKS
SIOUX FALLS    PTSUNNY   24  13  62 NW28G37   29.75R WCI   7          
BROOKINGS      NOT AVBL                                               
WATERTOWN      LGT SNOW  18  12  77 NW23G33   29.74R WCI   0          
HURON          SUNNY     26  13  57 NW21G30   29.84R WCI  12          
SISSETON         N/A     20  12  71 N31G38    29.76R WCI   1          
ABERDEEN       SUNNY     27  14  58 NW23G32   29.85R WCI  12          
MITCHELL       SUNNY     28  14  55 NW30G37   29.85R WCI  12          
PIERRE         SUNNY     29   7  39 NW18      29.92R WCI  16          
MOBRIDGE       SUNNY     27   6  41 NW17      29.90R WCI  14          
RAPID CITY     SNOW      29  26  89 N7        29.94R VSB 1/2 WCI  22  
$$

  *****  SOME WEATHER IN NEARBY STATES *****
  
CITY           SKY/WX    TMP DP  RH WIND       PRES   REMARKS
GLASGOW MT     CLOUDY    33  23  66 W12       30.01S WCI  24          
GREAT FALLS MT SUNNY     43  16  33 W23G29    30.10S                  
CHEYENNE WY    CLOUDY    31  18  58 NW17G24   29.98R WCI  19          
SCOTTSBLUFF NE LGT RAIN  39  23  52 NW29G38   29.97R                  
OMAHA NE       MOSUNNY   35  19  52 NW23G31   29.79R WCI  23          
DES MOINES IA  FLURRIES  28  17  63 NW25G32   29.68R WCI  13          
DAVENPORT IA   SNOW      26  23  88 W23G30    29.56R VSB 1/2 WCI  11  
CHICAGO IL     LGT SNOW  31  27  85 W28G39    29.41R FOG     WCI  17  
EAU CLAIRE WI  LGT SNOW  26  22  84 W16       29.38R VSB 1   WCI  14  
LA CROSSE WI   LGT SNOW  28  22  78 W15       29.42R WCI  16          
$$

  *****  SOME NATIONAL WEATHER *****
  
CITY           SKY/WX    TMP DP  RH WIND       PRES   REMARKS
LA GUARDIA NY  MOSUNNY   61  55  81 S12       29.58S                  
RALEIGH NC     PTSUNNY   71  61  70 SW12G25   29.77F                  
ATLANTA GA     PTSUNNY   75  50  41 W13G22    29.80R                  
NEW ORLEANS LA PTSUNNY   69  48  47 NW14      29.90R                  
OKLAHOMA CITY  MOSUNNY   59  16  18 NW14G28   29.97S                  
ALBUQUERQUE NM PTSUNNY   44   7  21 NW24G32   30.11F                  
SALT LAKE CITY MOSUNNY   41  22  46 NW16      30.36S                  
LOS ANGELES CA MOSUNNY   77  12   8 VRB3      30.20F                  
BOISE ID       SUNNY     45  28  51 N5        30.42F                  
SEATTLE WA     CLOUDY    45  35  68 S3        30.29F                  
$$

*** WEATHER ACROSS MANITOBA...SASKATCHEWAN AND ONTARIO ***
                ***ONTARIO***
  
CITY           SKY/WX    TMP DP  RH WIND       PRES   REMARKS
GERALDTON      LGT SNOW  18  14  86 N14G25    29.29R VSB 1   WCI   4  
THUNDER BAY    FLURRIES  21  14  73 N12G26    29.37R WCI   9          
SIOUX LOOKOUT  FLURRIES  14   7  73 N13G21    29.60R WCI   0          
TORONTO        PTSUNNY   59  48  67 SW28G41   29.19R                  
BIG TROUT LK   SUNNY      5   0  78 N8        29.73S WCI  -8          
PICKLE LAKE    FLURRIES  10   5  79 N9        29.60R WCI  -2          
DRYDEN         FLURRIES  14   9  79 N14G21    29.61R WCI  -1          
KENORA         MOSUNNY   14   7  73 N13G21    29.69R WCI   0          
$$      
                *** MANITOBA***
  
CITY           SKY/WX    TMP DP  RH WIND       PRES   REMARKS
BRANDON        MOSUNNY   18   5  57 W14       29.92S WCI   4          
DAUPHIN        CLOUDY    14   1  57 W12       29.92F WCI   0          
ISLAND LAKE    MOSUNNY   -2  -9  71 W5        29.86S WCI -12          
PILOT MOUND      N/A     12   3  67 NW15        N/A  WCI  -4          
THE PAS        FLURRIES  10   3  72 W10       29.88S WCI  -3          
THOMPSON       LGT SNOW   3  -2  78 W7        29.82S WCI  -9          
WINNIPEG       MOSUNNY   12   3  67 NW15      29.90R WCI  -4          
LYNN LAKE      FLURRIES   3  -2  78 N15G22    29.82R WCI -15          
CHURCHILL      LGT SNOW   3   0  85 NW15      29.78F WCI -15          
GILLAM         CLOUDY     1  -6  71 SW8       29.80F WCI -12          
$$
                ***SASKATCHEWAN***
  
CITY           SKY/WX    TMP DP  RH WIND       PRES   REMARKS
ESTEVAN        CLOUDY    19  14  79 W13       29.93F WCI   7          
KINDERSLEY     PTSUNNY   32  27  80 NW14G25   29.95S WCI  22          
LLOYDMINSTER   CLOUDY    19  16  86 NW9       29.95R WCI   9          
PRINCE ALBERT  CLOUDY    18  12  79 NW8       29.92R WCI   7          
REGINA         SNOWSHWR  23  19  86 SW7       29.89F WCI  15          

Return to Home page


Western Regional Climate Center, wrcc@dri.edu